sat.trackr.live / text

‹ back to catalog

STARLINK-4637

NORAD 53742 · 2022-107AU

PAYLOAD ACTIVE UNKNOWN

§ Identity

Operator
Country
US
Launch date
2022-09-05
Launch site
AFETR
Launch vehicle
Mass (kg)
RCS (m²)

Purposes: comms

External: N2YO · Heavens-Above · Gunter

§ Orbital elements

Epoch: 2026-09-20T21:37:54.072192Z

Period
93.85 min
Inclination
53.1626°
Eccentricity
0.0001111
Mean motion
15.34391810 rev/d
Perigee alt
462.0 km
Apogee alt
463.5 km
Semi-major
6,840.9 km
B*
6.5662e-5
RAAN
91.6899°
Arg perigee
93.2307°
Mean anomaly
266.8823°
Rev number
22,428

§ Raw data

STARLINK-46371 53742U 22107AU  26263.90132028  .00001842  00000+0  65662-4 0  99902 53742  53.1626  91.6899 0001111  93.2307 266.8823 15.34391810224284

JSON: /api/v1/satellites/53742 · /tle

For live sub-satellite position, see the globe view (requires WebGL).

§ Visibility from observer

Set your observer location to see the next 7 days of passes ≥ 10°. The values pass through the URL so the page stays shareable.

No JS? Fill the form by hand. The geolocation button needs JavaScript.